www.pogodaiklimat.ru

Погода и климат >> Архив погоды >> Индия >> Махараштра >> Нагпур


ПОГОДА в Нагпуре

  • Прогноз погоды в Нагпуре
  • Монитор погоды в Нагпуре

АРХИВ ПОГОДЫ в Нагпуре

Время (UTC), дата Ветер
(напр.,м/с)
 
Видим.   Явления Облачность Т
(С)
Тd
(С)
f
(%)
Тe
(С)
Тes
(С)
Комфортность P
(гПа)
Po
(гПа)
Тmin
(С)
Tmax
(С)
R
(мм)
R24
(мм)
S
(см)
18 11.08 ЮЗ 1 2000 м мгла 9/5 450 м
[Sc Ac trans]
+27.0 +24.4 86 +38 +38 очень
душно
1004.1 969.3 0.1
21 11.08 З 1 2000 м мгла 9/5 450 м
[Sc Ac trans]
+26.2 +23.3 84 +35 +35 очень
душно
1002.8 967.9 0.1
00 12.08 З 1 2000 м мгла 9/5 450 м
[Sc Ac trans]
+25.4 +23.3 88 +34 +34 очень
душно
1002.9 967.9 0.1
03 12.08 З 4 4000 м мгла 8/3 600 м
[Sc Ac trans]
+27.2 +24.0 83 +38 +40 очень
душно
1004.1 969.3 +24.8 0.1
06 12.08 З 5 4000 м мгла 9/5 540 м
[Cu Sc Ac trans]
+30.6 +24.1 68 +42 +45 опасность
перегрева
1003.4 969.0
09 12.08 СЗ 3 4000 м мгла 9/5 540 м
[Cu Sc Ac trans]
+32.8 +23.9 60 +45 +48 опасность
перегрева
1000.9 966.8
12 12.08 З 5 2000 м мгла 9/5 540 м
[Cu Sc Ac trans]
+31.8 +23.8 63 +43 +44 опасность
перегрева
999.8 965.7 +33.8
15 12.08 З 3 2000 м мгла 9/4 540 м
[Sc Ac trans]
+29.2 +23.7 72 +40 +40 очень
душно
1002.1 967.6
18 12.08 З 2 2000 м мгла 9/5 540 м
[Sc Ac trans]
+28.0 +24.6 82 +40 +40 очень
душно
1002.6 967.9
21 12.08 З 2 2000 м слаб. морось 9/5 540 м
[Sc Ac trans]
+27.0 +24.1 84 +37 +37 очень
душно
1000.7 966.0 0.0
00 13.08 З 2 2000 м слаб. морось {дождь} 9/5 300 м
[Frnb Ac trans]
+26.2 +24.8 92 +37 +37 очень
душно
1000.7 965.9 0.5
03 13.08 СЗ 4 2000 м слаб. морось {дождь} 10/5 300 м
[Frnb As op]
+25.6 +24.7 95 +36 +37 очень
душно
1002.7 967.8 +24.6 2
06 13.08 З 4 2000 м мгла {дождь} 10/5 300 м
[Frnb As op]
+28.0 +24.6 82 +40 +41 очень
душно
1002.8 968.1 0.1
09 13.08 З 5 2000 м мгла {дождь} 10/5 300 м
[Frnb As op]
+27.4 +23.6 80 +37 +38 очень
душно
1001.5 966.8 0.1
12 13.08 ЮЗ 2 2000 м слаб. дождь 10/5 300 м
[Frnb As op]
+26.0 +24.0 89 +36 +36 очень
душно
1001.5 966.7 +29.9 0.5
15 13.08 Ю 2 2000 м слаб. дождь 10/8 300 м
[Frnb As op]
+25.4 +24.5 95 +36 +36 очень
душно
1003.1 968.1 2
18 13.08 ЮЗ 2 2000 м слаб. дождь 10/8 300 м
[Frnb As op]
+25.2 +24.6 96 +35 +35 очень
душно
1003.3 968.3 3
21 13.08 З 3 2000 м слаб. дождь 10/8 300 м
[Frnb As op]
+25.0 +23.5 91 +34 +34 очень
душно
1001.8 966.8 4
00 14.08 З 2 2000 м слаб. дождь 10/8 300 м
[Frnb As op]
+24.8 +24.5 98 +35 +35 очень
душно
1002.0 967.0 9
03 14.08 З 3 2000 м слаб. дождь 10/8 300 м
[Frnb As op]
+25.0 +24.1 95 +34 +35 очень
душно
1003.6 968.6 +23.5 10
06 14.08 З 3 2000 м слаб. морось {дождь} 10/8 240 м
[Frnb As op]
+26.2 +24.8 92 +37 +38 очень
душно
1003.9 969.0 0.3
09 14.08 З 3 2000 м слаб. морось {дождь} 10/6 450 м
[Sc As op]
+26.4 +24.7 90 +37 +38 очень
душно
1002.3 967.5 0.6
12 14.08 З 3 2000 м слаб. морось {дождь} 10/6 450 м
[Sc As op]
+26.4 +24.7 90 +37 +37 очень
душно
1001.2 966.4 +27.0 1
15 14.08 Ю 2 2000 м мгла 10/8 240 м
[Frnb As op]
+25.8 +24.9 95 +37 +37 очень
душно
1004.2 969.2 1
18 14.08 З 3 2000 м мгла 10/5 300 м
[Frnb As op]
+25.4 +24.5 95 +36 +36 очень
душно
1005.4 970.3 1
21 14.08 Ю 2 2000 м мгла 10/5 540 м
[Sc As op]
+24.4 +23.5 95 +33 +33 очень
душно
1004.1 969.0 1
00 15.08 Ю 3 2000 м мгла 10/5 540 м
[Sc As op]
+24.4 +23.8 96 +33 +33 очень
душно
1003.6 968.5 1
03 15.08 ЮЗ 5 2000 м мгла 9/3 540 м
[Sc Ac trans]
+26.4 +24.4 89 +37 +38 очень
душно
1005.4 970.5 +23.7 1
06 15.08 З 6 4000 м мгла 9/5 540 м
[Cu Sc Ac trans]
+29.4 +24.2 74 +41 +44 опасность
перегрева
1005.3 970.7
09 15.08 ЮЗ 5 4000 м мгла 9/6 600 м
[Cu Sc Ac trans]
+30.6 +24.6 70 +43 +45 опасность
перегрева
1003.3 968.9
12 15.08 ЮЗ 4 4000 м мгла {дождь} 5/5 600 м
[Cu Sc]
+30.4 +23.1 65 +41 +41 опасность
перегрева
1002.3 967.9 +32.0 0.1
15 15.08 Ю 2 2000 м мгла 8/4 600 м
[Sc Ac trans]
+27.0 +24.4 86 +38 +38 очень
душно
1004.6 969.8 0.1
18 15.08 Ю 1 2000 м мгла 8/4 600 м
[Sc Ac trans]
+25.8 +24.4 92 +36 +36 очень
душно
1005.8 970.8 0.1
21 15.08 Ю 2 2000 м мгла {дождь} 9/4 450 м
[Sc Ac trans]
+25.4 +23.7 90 +35 +35 очень
душно
1004.5 969.5 0.3
00 16.08 Ю 2 2000 м мгла {дождь} 9/4 600 м
[Sc Ac trans]
+24.4 +23.5 95 +33 +33 очень
душно
1004.7 969.6 0.3
03 16.08 ЮЗ 4 4000 м 5/4 300 м
[Frnb Ac trans]
+27.4 +24.2 83 +38 +41 очень
душно
1005.9 971.1 +23.8 0.3
06 16.08 ЮЗ 4 4000 м 8/6 300 м
[Frnb Ac trans]
+30.6 +24.0 68 +42 +47 опасность
перегрева
1005.6 971.1
09 16.08 ЮЗ 2 4000 м мгла 6/5 300 м
[Frnb Ac trans]
+31.2 +25.0 70 +45 +52 опасность
перегрева
1003.5 969.2
12 16.08 ЮЗ 3 4000 м мгла 6/5 600 м
[Cu Sc Ac trans]
+31.2 +23.7 64 +42 +43 опасность
перегрева
1001.3 967.0 +33.1
15 16.08 Ю 2 4000 м мгла 4/3 600 м
[Sc Ac trans]
+27.6 +24.1 81 +38 +38 очень
душно
1003.7 969.0
18 16.08 ЮЗ 2 4000 м мгла 4/3 600 м
[Sc Ac trans]
+27.0 +24.7 87 +38 +38 очень
душно
1005.7 970.8
21 16.08 Ю 2 4000 м мгла 4/3 600 м
[Sc Ac trans]
+25.6 +23.9 90 +35 +35 очень
душно
1004.7 969.7
00 17.08 штиль 0 4000 м мгла 4/3 600 м
[Sc Ac trans]
+24.4 +23.6 95 +33 +33 очень
душно
1004.3 969.2
03 17.08 З 3 4000 м мгла 5/4 600 м
[Cu Sc Ac trans]
+27.2 +24.0 83 +38 +41 очень
душно
1005.7 970.8 +23.7
06 17.08 ЮЗ 3 4000 м мгла 8/6 600 м
[Cu Sc Ac trans]
+31.4 +23.6 63 +42 +47 опасность
перегрева
1005.8 971.4
09 17.08 З 3 4000 м мгла 8/6 450 м
[Cu Sc Ac trans]
+33.0 +24.2 60 +45 +49 опасность
перегрева
1003.7 969.6
12 17.08 ЮЗ 2 4000 м мгла 9/6 450 м
[Cu Sc Ac trans]
+31.2 +24.3 67 +43 +44 опасность
перегрева
1002.3 968.0 +33.3
15 17.08 штиль 0 2000 м мгла {дождь} 4/3 600 м
[Sc Ac trans]
+27.8 +24.3 81 +39 +39 очень
душно
1004.7 969.9 0.0
18 17.08 штиль 0 2000 м мгла {дождь} 5/3 600 м
[Sc Ac trans Ci sp]
+26.2 +24.8 92 +37 +37 очень
душно
1006.3 971.3 0.0
21 17.08 З 1 2000 м мгла 5/3 600 м
[Sc Ac trans Ci sp]
+25.4 +24.2 93 +35 +35 очень
душно
1005.2 970.2 0.0
00 18.08 З 2 2000 м мгла 5/3 600 м
[Sc Ac trans]
+25.2 +23.7 91 +34 +34 очень
душно
1005.5 970.4 0.0
03 18.08 З 4 4000 м мгла 5/3 600 м
[Sc Ac trans]
+27.8 +23.7 78 +38 +41 очень
душно
1007.3 972.5 +24.5 0.0
06 18.08 З 3 4000 м 8/5 600 м
[Cu Sc Ac trans]
+31.2 +24.3 67 +43 +49 опасность
перегрева
1006.6 972.2
09 18.08 СЗ 2 4000 м 6/5 600 м
[Cu Sc Ac trans]
+33.2 +23.4 57 +44 +52 опасность
перегрева
1004.4 970.3
12 18.08 З 3 4000 м 4/3 600 м
[Cu Sc Ci fib]
+32.6 +23.4 58 +43 +44 опасность
перегрева
1003.3 969.1 +34.0
15 18.08 ЮЗ 3 2000 м мгла 4/3 750 м
[Cu hum Ci fib]
+28.0 +24.3 80 +39 +39 очень
душно
1006.1 971.3

 

Местоположение метеостанции Нагпур (Махараштра, Индия): широта 21.10 долгота 79.05 высота над уровнем моря 310 м.

В архиве по умолчанию представлена погода в Нагпуре за последнюю неделю. Архивные данные за месяц целиком и за предыдущие месяцы, начиная с января 2011 года, Вы можете получить, выбрав интересующий диапазон дат из раскрывающегося списка и нажав кнопку "Ввод!".


*Определитесь, кто Вы:
робот инопланетянин человек

Внимание! Время в таблицах - всемирное. Для получения местного времени необходимо прибавить поправку, которая равна 5.5 ч.

Смотрите также архив погоды в соседних городах и на ближайших метеорологических станциях:

Погода в Вардхе (Махараштра, Индия) (68 км)
Погода в Брамапури (Махараштра, Индия) (100 км)
Погода в Чхиндваре (Мадхья-Прадеш, Индия) (111 км)
Погода в Сеони (Мадхья-Прадеш, Индия) (121 км)
Погода в Яватмале (Махараштра, Индия) (122 км)
Погода в Гондии (Махараштра, Индия) (126 км)
Погода в Чандрапуре (Махараштра, Индия) (128 км)
Погода в Амравати (Махараштра, Индия) (133 км)
Погода в Бетуле (Мадхья-Прадеш, Индия) (144 км)
Погода в Пачмарае (Мадхья-Прадеш, Индия) (165 км)

Пояснения к столбцам:

Ветер - указаны скорость ветра в м/с - средняя за 10 мин, порывы в срок и между сроками (в фигурных скобках) и направление, откуда дует ветер: С - северный, СВ - северо-восточный, В - восточный, ЮВ - юго-восточный, Ю - южный, ЮЗ - юго-западный, З - западный, СЗ - северо-западный.
Видимость - горизонтальная дальность видимости в метрах или километрах. При видимости от 1 до 10 км при отсутствии осадков обычно наблюдается дымка, при ухудшении видимости до 1 км и менее - туман. В сухую погоду видимость может ухудшаться дымом, пылью или мглою.
Явления - указаны атмосферные явления, наблюдавшиеся в срок или в последний час перед сроком; фигурными скобками обозначены явления, наблюдавшиеся между сроками (за 1-3 часа до срока); квадратными скобками обозначены град или гололедные отложения с указанием их диаметра в мм.
Облачность - указаны через наклонную черту общая и нижняя облачность в баллах и высота нижней границы облаков в метрах; квадратными скобками обозначены формы облаков: Ci - перистые, Cs - перисто-слоистые, Cc - перисто-кучевые, Ac - высококучевые, As - высокослоистые, Sc - слоисто-кучевые, Ns - слоисто-дождевые, Cu - кучевые, Cb - кучево-дождевые. Подробнее классификацию облаков см. в Атласе облаков (PDF).
T - Температура воздуха - температура, измеренная на высоте 2 м над землей.
Td - Температура точки росы - температура, при понижении до которой содержащийся в воздухе водяной пар достигнет насыщения.
f - Относительная влажность воздуха - влажноcть воздуха, измеренная на высоте 2 м над землей.
Te - Эффективная температура - температура, которую ощущает одетый по сезону человек в тени. Характеристика душности погоды. При расчете учитывается влияние влажности воздуха и скорости ветра на теплоощущения человека.
Tes - Эффективная температура на солнце - температура, которую ощущает человек, с поправкой на солнечный нагрев. Характеристика знойности погоды. Зависит от высоты солнца над горизонтом, облачности и скорости ветра. Ночью, в пасмурную погоду, а также при ветре 12 м/с и более поправка равна нулю.
P - Атмосферное давление - приведенное к уровню моря атмосферное давление.
Po - Атмосферное давление - измеренное на уровне метеостанции атмосферное давление.
Tmin - Минимальная температура - минимум температуры воздуха на высоте 2 м над землей.
Tmax - Максимальная температура - максимум температуры воздуха на высоте 2 м над землей.
R - Количество осадков - Количество выпавших осадков за период времени, мм. При наведении курсора мыши на число - период времени, за который выпало указанное количество осадков.
R24 - Количество осадков - Количество выпавших осадков за 24 часа, мм.
S - Снежный покров - Высота снежного покрова, см. При наведении курсора мыши на число - состояние снежного покрова и степень покрытия местности в баллах.